Date String (YYYY-MM-DD hh:mm:ss) UTC,Instrument flags,Ambient pressure (hPa),Sample flow (lpm),Bypass flow (lpm),Sample temperature (°C),Ambient temperature (°C),ASC tube jacket temperature (°C),LED temperature (°C),Box temperature (°C),Sample RH (%),Span deviation,Mass concentration (μg/m³),Mass concentration (μg/m³),Mass concentration (μg/m³)
DateTimeUTC,F1_M11,P_M11,Q1_M11,Q2_M11,T1_M11,T2_M11,T3_M11,T4_M11,T5_M11,U1_M11,ZSPAN_M11,X0_M11,X2_M11,X1_M11
2022-11-01 19:00:00,,0821.8,5.02,0.00,30.4,29.2,00.0,39.2,32.3,09.6,0000.0,0011.57,0003.50,0002.72
2022-11-01 19:01:00,,0821.7,4.99,0.00,30.5,29.2,00.0,39.2,32.3,09.6,0000.0,0011.46,0003.47,0002.70
2022-11-01 19:02:00,,0821.7,5.03,0.00,30.5,29.3,00.0,39.2,32.3,09.6,0000.0,0011.65,0003.45,0002.69
2022-11-01 19:03:00,,0821.7,4.98,0.00,30.5,29.3,00.0,39.2,32.3,09.6,0000.0,0011.85,0003.47,0002.68
2022-11-01 19:04:00,,0821.7,5.01,0.00,30.5,29.3,00.0,39.2,32.3,09.6,0000.0,0011.72,0003.48,0002.67
2022-11-01 19:05:00,,0821.7,4.99,0.00,30.5,29.3,00.0,39.2,32.3,09.5,0000.0,0011.16,0003.48,0002.65
2022-11-01 19:06:00,,0821.7,5.02,0.00,30.5,29.3,00.0,39.3,32.4,09.5,0000.0,0010.66,0003.47,0002.62
2022-11-01 19:07:00,,0821.7,4.99,0.00,30.5,29.3,00.0,39.3,32.4,09.6,0000.0,0010.43,0003.41,0002.62
2022-11-01 19:08:00,,0821.6,5.01,0.00,30.6,29.4,00.0,39.3,32.4,09.6,0000.0,0010.93,0003.44,0002.60
2022-11-01 19:09:00,,0821.7,5.01,0.00,30.6,29.4,00.0,39.3,32.4,09.6,0000.0,0011.20,0003.44,0002.58
2022-11-01 19:10:00,,0821.7,5.00,0.00,30.6,29.4,00.0,39.3,32.4,09.5,0000.0,0010.90,0003.41,0002.54
2022-11-01 19:11:00,,0821.7,4.99,0.00,30.6,29.4,00.0,39.3,32.4,09.5,0000.0,0010.04,0003.39,0002.54
2022-11-01 19:12:00,,0821.7,4.99,0.00,30.6,29.4,00.0,39.4,32.5,09.5,0000.0,0010.18,0003.41,0002.55
2022-11-01 19:13:00,,0821.6,5.01,0.00,30.6,29.5,00.0,39.4,32.5,09.5,0000.0,0010.06,0003.41,0002.55
2022-11-01 19:14:00,,0821.7,4.99,0.00,30.7,29.5,00.0,39.4,32.5,09.5,0000.0,0009.90,0003.40,0002.56
2022-11-01 19:15:00,,0821.6,5.01,0.00,30.7,29.5,00.0,39.4,32.5,09.4,0000.0,0010.36,0003.42,0002.58
2022-11-01 19:16:00,,0821.6,5.00,0.00,30.7,29.5,00.0,39.4,32.5,09.5,0000.0,0010.13,0003.42,0002.60
2022-11-01 19:17:00,,0821.5,5.00,0.00,30.7,29.5,00.0,39.4,32.5,09.4,0000.0,0009.84,0003.44,0002.62
2022-11-01 19:18:00,,0821.5,4.99,0.00,30.7,29.5,00.0,39.4,32.5,09.4,0000.0,0010.42,0003.47,0002.61
2022-11-01 19:19:00,,0821.6,5.02,0.00,30.7,29.5,00.0,39.5,32.5,09.5,0000.0,0010.69,0003.53,0002.65
2022-11-01 19:20:00,,0821.6,4.98,0.00,30.7,29.6,00.0,39.5,32.6,09.4,0000.0,0010.02,0003.56,0002.71
2022-11-01 19:21:00,,0821.6,5.01,0.00,30.8,29.6,00.0,39.5,32.6,09.5,0000.0,0010.47,0003.61,0002.79
2022-11-01 19:22:00,,0821.6,4.98,0.00,30.8,29.6,00.0,39.5,32.6,09.4,0000.0,0010.44,0003.67,0002.89
2022-11-01 19:23:00,,0821.6,5.00,0.00,30.8,29.6,00.0,39.5,32.6,09.5,0000.0,0010.61,0003.73,0002.97
2022-11-01 19:24:00,,0821.6,5.00,0.00,30.8,29.7,00.0,39.5,32.6,09.5,0000.0,0010.92,0003.83,0003.07
2022-11-01 19:25:00,,0821.6,5.02,0.00,30.8,29.7,00.0,39.6,32.7,09.4,0000.0,0012.21,0003.90,0003.14
2022-11-01 19:26:00,,0821.5,4.99,0.00,30.9,29.7,00.0,39.6,32.7,09.4,0000.0,0012.02,0003.95,0003.20
2022-11-01 19:27:00,,0821.5,5.00,0.00,30.9,29.7,00.0,39.6,32.7,09.5,0000.0,0012.27,0004.03,0003.26
2022-11-01 19:28:00,,0821.5,5.02,0.00,30.9,29.4,00.0,39.6,32.7,09.5,0000.0,0012.35,0004.08,0003.33
2022-11-01 19:29:00,,0821.5,4.99,0.00,30.9,28.0,00.0,39.6,32.5,09.4,0000.0,0012.20,0004.13,0003.39
2022-11-01 19:30:00,,0821.5,5.00,0.00,30.8,27.1,00.0,39.5,32.4,09.5,0000.0,0013.17,0004.18,0003.45
2022-11-01 19:31:00,,0821.4,5.00,0.00,30.7,27.1,00.0,39.4,32.3,09.5,0000.0,0013.41,0004.22,0003.49
2022-11-01 19:32:00,,0821.4,5.01,0.00,30.6,27.4,00.0,39.4,32.1,09.5,0000.0,0013.46,0004.25,0003.51
2022-11-01 19:33:00,,0821.4,5.00,0.00,30.5,27.8,00.0,39.4,32.1,09.6,0000.0,0013.70,0004.25,0003.51
2022-11-01 19:34:00,,0821.4,5.01,0.00,30.5,28.1,00.0,39.4,32.1,09.6,0000.0,0014.91,0004.25,0003.52
2022-11-01 19:35:00,,0821.4,4.99,0.00,30.5,28.3,00.0,39.3,32.1,09.6,0000.0,0015.17,0004.25,0003.53
2022-11-01 19:36:00,,0821.4,5.01,0.00,30.5,28.5,00.0,39.3,32.1,09.7,0000.0,0014.15,0004.24,0003.54
2022-11-01 19:37:00,,0821.4,4.99,0.00,30.5,28.6,00.0,39.3,32.1,09.6,0000.0,0013.97,0004.24,0003.54
2022-11-01 19:38:00,,0821.4,5.02,0.00,30.5,28.8,00.0,39.3,32.2,09.5,0000.0,0014.22,0004.21,0003.53
2022-11-01 19:39:00,,0821.4,4.99,0.00,30.5,28.9,00.0,39.3,32.2,09.5,0000.0,0014.69,0004.20,0003.52
2022-11-01 19:40:00,,0821.4,5.00,0.00,30.5,29.0,00.0,39.3,32.2,09.6,0000.0,0014.51,0004.23,0003.52
2022-11-01 19:41:00,,0821.4,5.00,0.00,30.5,29.0,00.0,39.3,32.2,09.5,0000.0,0013.75,0004.24,0003.50
2022-11-01 19:42:00,,0821.3,5.01,0.00,30.5,29.1,00.0,39.3,32.2,09.4,0000.0,0014.15,0004.22,0003.50
2022-11-01 19:43:00,,0821.4,4.99,0.00,30.5,29.2,00.0,39.3,32.3,09.5,0000.0,0014.86,0004.24,0003.49
2022-11-01 19:44:00,,0821.3,5.01,0.00,30.5,29.2,00.0,39.3,32.3,09.4,0000.0,0015.20,0004.27,0003.51
2022-11-01 19:45:00,,0821.3,4.99,0.00,30.6,29.3,00.0,39.3,32.3,09.5,0000.0,0014.25,0004.32,0003.53
2022-11-01 19:46:00,,0821.2,5.01,0.00,30.6,29.3,00.0,39.3,32.3,09.4,0000.0,0013.24,0004.32,0003.52
2022-11-01 19:47:00,,0821.2,4.99,0.00,30.6,28.5,00.0,39.3,32.4,09.4,0000.0,0013.63,0004.28,0003.50
2022-11-01 19:48:00,,0821.2,5.00,0.00,30.6,27.1,00.0,39.3,32.2,09.6,0000.0,0014.05,0004.30,0003.49
2022-11-01 19:49:00,,0821.1,5.00,0.00,30.5,26.6,00.0,39.2,32.2,09.6,0000.0,0014.03,0004.30,0003.50
2022-11-01 19:50:00,,0821.1,5.01,0.00,30.4,26.9,00.0,39.2,32.0,09.7,0000.0,0013.59,0004.37,0003.51
2022-11-01 19:51:00,,0821.1,5.01,0.00,30.3,27.2,00.0,39.1,31.9,09.7,0000.0,0014.49,0004.36,0003.51
2022-11-01 19:52:00,,0821.1,4.99,0.00,30.3,27.5,00.0,39.1,31.9,09.8,0000.0,0015.16,0004.36,0003.54
2022-11-01 19:53:00,,0821.1,5.01,0.00,30.2,27.8,00.0,39.1,31.9,09.8,0000.0,0015.35,0004.41,0003.56
2022-11-01 19:54:00,,0821.1,4.99,0.00,30.2,28.1,00.0,39.1,31.9,09.8,0000.0,0015.26,0004.44,0003.60
2022-11-01 19:55:00,,0821.1,5.01,0.00,30.2,28.3,00.0,39.1,31.9,09.8,0000.0,0015.49,0004.44,0003.63
2022-11-01 19:56:00,,0821.0,5.00,0.00,30.2,28.4,00.0,39.1,31.9,09.8,0000.0,0015.49,0004.43,0003.64
2022-11-01 19:57:00,,0821.0,4.99,0.00,30.2,28.6,00.0,39.1,32.0,09.9,0000.0,0016.05,0004.46,0003.67
2022-11-01 19:58:00,,0821.0,5.01,0.00,30.3,28.7,00.0,39.1,32.0,09.8,0000.0,0016.39,0004.53,0003.69
2022-11-01 19:59:00,,0821.0,5.01,0.00,30.3,28.9,00.0,39.1,32.1,09.8,0000.0,0016.86,0004.52,0003.70
